Startseite
Über Mich
AHP4
Galerie
Sehschlangen
Tourenbuch
Bookmarks
Elektronik
Bewertung
Geschichten
[Tagesmessung] [Jahreswerte] [Information]

Messwerte vom 18.04.2022

Die letzten Messwerte von 23:58:46 Uhr:
KategorieMesswert
Temperatur [°C]4
Luftdruck [mBar]1001
Sonneneinstrahlung0
Wind [km/h]0 aus Südost
Niederschlag [l/m²]0
rel.Luftfeucht.78.2%
CO2 [ppm]736

Diagramme
Messwerte vom 18.04.2022
Tagesaggregation
KategorieMinimumMaximumSchnittSumme
Temperatur [°C]-1188.1063
Luftdruck [mBar]100110091004.7125
Sonneneinstrahlung247123.0854
Wind [km/h]15
rF [%]3395.664.83
Niederschlag [l/m²]0
CO2 [ppm]401747532.9
Einordnung alsFrosttag
Vegetationstag

Messungen an benachbarten Tagen: Zur Jahresaggregation 2022
Tabelle aller Messwerte
UhrzeitTemperatur [°C]Luftdruck [mBar]SonneWind [km/h]RichtungRegen [l/m²]rF [%]CO2 [ppm]
00:01:49 2 1009 0 0 NW 0 80 471
00:04:48 2 1009 0 0 NW 0 81 471
00:07:47 2 1009 0 0 NW 0 81.2 477
00:10:48 2 1009 0 0 NW 0 81.6 486
00:13:48 2 1009 0 0 NW 0 82.3 492
00:16:47 2 1009 0 0 NW 0 82.4 491
00:19:47 2 1009 0 0 NW 0 81.9 489
00:22:48 2 1009 0 0 NW 0 82 489
00:25:48 2 1009 0 0 NW 0 83.1 501
00:28:49 2 1009 0 0 NW 0 83.7 513
00:31:48 2 1009 0 0 NW 0 83.4 515
00:34:49 2 1009 0 0 NW 0 83 516
00:37:47 2 1009 0 0 NW 0 82.9 519
00:40:47 2 1008 0 0 NW 0 82.7 524
00:43:47 1 1009 0 0 NW 0 82.9 536
00:46:46 1 1009 0 0 O 0 83.5 539
00:49:46 1 1009 0 0 O 0 84 545
00:52:46 2 1009 0 0 O 0 84.7 556
00:55:46 2 1009 0 0 O 0 85.2 552
00:58:46 1 1009 0 0 O 0 84.7 568
01:01:47 1 1009 0 0 O 0 84.6 582
01:04:46 1 1009 0 0 O 0 84.5 586
01:07:46 1 1008 0 0 O 0 84.7 585
01:10:46 1 1009 0 0 O 0 84.9 586
01:13:48 1 1008 0 0 SO 0 84.9 597
01:16:47 1 1009 0 0 SO 0 85.1 606
01:19:48 1 1008 0 0 SO 0 85.4 626
01:22:49 1 1009 0 0 SO 0 85.3 634
01:25:47 1 1009 0 0 SO 0 85.1 633
01:28:49 1 1009 0 0 SO 0 85.6 638
01:31:45 1 1008 0 0 N 0 86.4 644
01:34:45 1 1008 0 0 N 0 87.7 645
01:37:45 1 1007 0 0 SO 0 87.5 648
01:40:49 1 1008 0 0 SO 0 86.3 652
01:43:45 1 1008 0 0 N 0 86.4 648
01:46:45 1 1009 0 0 N 0 86.5 649
01:49:45 1 1008 0 0 N 0 87.1 653
01:52:47 1 1008 0 0 N 0 87.5 656
01:55:45 1 1007 0 0 N 0 87.4 661
01:58:45 1 1008 0 0 N 0 87.5 664
02:01:45 1 1008 0 0 N 0 87.9 664
02:04:47 1 1008 0 0 N 0 88 665
02:07:46 1 1009 0 0 N 0 88.4 664
02:10:47 1 1007 0 0 N 0 88.8 664
02:13:47 1 1008 0 0 N 0 88.9 664
02:16:45 1 1008 0 0 N 0 89.4 658
02:19:45 1 1008 0 0 N 0 89.9 665
02:22:45 1 1008 0 0 N 0 89.4 669
02:25:48 1 1008 0 0 O 0 90 673
02:28:46 1 1008 0 0 O 0 90.8 668
02:31:46 1 1007 0 0 O 0 90.8 671
02:34:46 1 1007 0 0 O 0 90.5 679
02:37:47 1 1007 0 0 O 0 90.5 674
02:40:47 1 1007 0 0 O 0 90.4 667
02:43:45 1 1007 0 0 O 0 90.2 665
02:46:49 0 1007 0 0 O 0 89.8 669
02:49:48 0 1007 0 0 O 0 89.6 674
02:52:46 0 1008 0 0 O 0 89.7 669
02:55:47 0 1007 0 0 O 0 89.6 667
02:58:46 0 1006 0 0 O 0 89.6 665
03:01:46 0 1007 0 0 O 0 89.8 676
03:04:47 0 1008 0 0 O 0 89.9 679
03:07:47 0 1007 0 0 O 0 89.9 679
03:10:47 0 1007 0 0 S 0 89.9 677
03:13:46 0 1006 0 0 S 0 90.1 671
03:16:47 0 1007 0 0 S 0 90.7 668
03:19:45 0 1007 0 0 N 0 91.9 667
03:22:45 1 1007 0 0 NO 0 92.7 671
03:25:48 1 1007 0 0 NO 0 92.8 661
03:28:47 1 1007 0 0 NO 0 92.5 668
03:31:47 0 1006 0 0 NO 0 91.8 672
03:34:46 0 1007 0 0 NO 0 91.3 679
03:37:48 0 1006 0 0 NO 0 90.9 682
03:40:48 0 1006 0 0 NO 0 90.9 682
03:43:48 0 1006 0 0 NO 0 90.9 677
03:46:48 0 1006 0 0 NO 0 90.9 673
03:49:46 0 1006 0 0 NO 0 91.1 677
03:52:48 -1 1006 0 0 NO 0 91.1 675
03:55:46 -1 1007 0 0 NO 0 90.9 671
03:58:49 0 1006 0 0 NO 0 92.8 671
04:01:47 0 1006 0 0 NO 0 94 677
04:04:48 0 1007 0 0 NO 0 94.3 677
04:07:49 0 1006 0 0 NO 0 94.4 683
04:10:50 0 1007 0 0 NO 0 94.4 683
04:13:48 0 1006 0 0 NO 0 94 677
04:16:50 0 1006 0 0 NO 0 93.7 682
04:19:47 0 1006 0 0 NO 0 93.1 687
04:22:48 0 1007 0 0 NO 0 92.8 686
04:25:47 -1 1006 0 0 NO 0 92.5 682
04:28:48 -1 1006 0 0 NO 0 92.5 669
04:31:47 -1 1006 0 0 NO 0 92.5 661
04:34:48 -1 1006 0 0 NO 0 92.6 659
04:37:47 0 1006 0 0 N 0 93.9 662
04:40:48 0 1006 0 0 N 0 95 673
04:43:48 0 1006 0 0 SO 0 94.6 682
04:46:50 0 1006 0 0 SO 0 94.2 682
04:49:48 -1 1006 0 0 SO 0 93.4 679
04:52:49 -1 1006 0 0 SO 0 93 677
04:55:49 -1 1006 0 0 SO 0 92.9 683
04:58:50 -1 1006 0 0 SO 0 92.9 680
05:01:50 -1 1006 0 0 SO 0 92.9 674
05:04:50 -1 1006 0 0 SO 0 92.8 669
05:07:48 -1 1006 0 0 SO 0 92.7 669
05:10:48 -1 1006 0 0 SO 0 92.6 665
05:13:48 -1 1007 0 0 SO 0 92.6 671
05:16:48 -1 1006 0 0 SO 0 92.7 670
05:19:48 -1 1006 0 0 SO 0 92.7 667
05:22:49 -1 1006 0 0 SO 0 93 665
05:25:47 -1 1006 0 0 SO 0 93.5 662
05:28:46 -1 1006 0 0 SO 0 94 659
05:31:47 -1 1006 0 0 SO 0 93.8 664
05:34:49 -1 1006 0 0 SO 0 93.2 666
05:37:47 -1 1006 0 0 SO 0 93 661
05:40:47 -1 1006 0 0 SO 0 93 656
05:43:47 -1 1006 0 0 SO 0 93 656
05:46:50 -1 1006 0 0 SO 0 92.9 662
05:49:49 -1 1006 4 0 SO 0 93 656
05:52:47 -1 1006 7 0 SO 0 93.2 651
05:55:48 -1 1006 11 0 SO 0 93.3 648
05:58:49 -1 1006 16 0 SO 0 93.2 650
06:01:47 -1 1006 24 0 SO 0 93.3 656
06:04:47 -1 1006 33 0 SO 0 93.3 656
06:07:47 -1 1006 45 0 SO 0 93.2 650
06:10:50 -1 1006 57 0 SO 0 93.2 654
06:13:48 -1 1006 69 0 SO 0 93.1 656
06:16:47 -1 1006 81 0 SO 0 93.2 653
06:19:50 -1 1006 92 0 SO 0 93.2 659
06:22:50 -1 1006 103 0 SO 0 93.4 663
06:25:48 -1 1006 113 0 N 0 93.5 671
06:28:48 -1 1006 121 0 O 0 93.5 665
06:31:48 -1 1006 129 0 O 0 94.6 671
06:34:47 0 1006 135 0 O 0 95.1 668
06:37:48 0 1006 141 0 O 0 95.2 671
06:40:47 0 1006 147 0 O 0 95.1 662
06:43:48 0 1006 151 0 O 0 95.6 665
06:46:48 0 1006 156 0 O 0 95.5 665
06:49:48 0 1006 159 0 O 0 95.3 668
06:52:46 0 1006 162 0 O 0 94.6 661
06:55:49 0 1006 166 0 O 0 94.2 662
06:58:46 0 1006 168 0 O 0 94.2 665
07:01:47 0 1006 170 0 O 0 94.2 656
07:04:47 0 1006 172 0 O 0 94 656
07:07:47 1 1006 174 0 O 0 94 653
07:10:47 2 1006 176 0 O 0 94.7 659
07:13:47 4 1006 178 0 O 0 90.9 659
07:16:46 5 1006 179 0 O 0 88 659
07:19:47 6 1006 180 0 O 0 85.9 648
07:22:46 6 1006 181 0 O 0 83.6 645
07:25:46 5 1006 182 0 O 0 81.8 653
07:28:47 4 1006 183 0 O 0 81.6 653
07:31:47 3 1006 184 0 O 0 82.6 656
07:34:49 3 1006 184 0 O 0 84.3 652
07:37:50 3 1006 185 0 O 0 84.9 662
07:40:47 2 1006 185 0 O 0 85.8 659
07:43:48 2 1006 186 0 O 0 86.2 651
07:46:47 2 1006 186 0 O 0 86.4 647
07:49:49 2 1006 187 0 O 0 87 645
07:52:46 3 1006 187 0 O 0 87.3 651
07:55:48 3 1006 187 0 O 0 87.9 646
07:58:49 3 1006 187 0 O 0 87.8 655
08:01:47 3 1006 188 0 O 0 87.4 661
08:04:47 3 1006 188 0 O 0 87.2 662
08:07:48 4 1006 189 0 O 0 87 660
08:10:47 4 1006 189 0 O 0 87 653
08:13:47 4 1006 190 0 O 0 87 646
08:16:46 4 1006 190 0 O 0 86.6 644
08:19:49 4 1006 190 0 SO 0 86.8 638
08:22:50 4 1006 190 0 NO 0 86.4 627
08:25:50 5 1006 190 0 NO 0 86 634
08:28:47 5 1006 190 0 O 0 86.3 635
08:31:46 5 1006 191 0 N 0 86.3 636
08:34:49 5 1006 139 0 SO 0 86.1 585
08:37:48 6 1006 139 0 O 0 84.9 425
08:40:49 6 1006 191 0 NO 0 83.3 404
08:43:48 7 1006 191 0 N 0 81.1 457
08:46:46 7 1006 192 2 O 0 79.6 468
08:49:48 7 1006 192 1 N 0 77.7 510
08:52:46 7 1006 193 1 N 0 76.2 506
08:55:47 7 1006 193 0 N 0 75.6 507
08:58:48 7 1006 194 1 SO 0 75.9 506
09:01:47 8 1006 194 2 SO 0 75.6 547
09:04:48 8 1006 194 0 NO 0 74.4 544
09:07:46 8 1006 195 2 O 0 74.2 545
09:10:50 8 1006 195 0 O 0 74.8 540
09:13:46 8 1006 195 0 O 0 73.9 547
09:16:47 8 1006 195 4 N 0 72.7 547
09:19:47 8 1006 195 5 NO 0 72 553
09:22:49 9 1006 195 3 NO 0 67 551
09:25:49 9 1006 195 4 NO 0 66.6 556
09:28:49 9 1006 195 6 NO 0 66.4 565
09:31:48 9 1006 194 0 N 0 65.6 565
09:34:48 9 1006 195 4 SO 0 65.9 571
09:37:49 9 1006 196 3 N 0 65.6 574
09:40:49 9 1006 196 1 N 0 65.8 580
09:43:48 9 1006 157 3 NW 0 65.9 577
09:46:48 9 1006 157 1 N 0 65.3 500
09:49:49 9 1006 157 5 NW 0 64.5 405
09:52:46 10 1006 157 2 O 0 64.1 416
09:55:47 10 1006 199 2 O 0 64.1 433
09:58:46 10 1006 200 1 N 0 63.7 433
10:01:46 10 1006 200 2 O 0 64.5 427
10:04:48 10 1006 201 2 N 0 64 418
10:07:46 10 1006 201 4 N 0 63.4 410
10:10:51 10 1006 202 1 NO 0 62.7 404
10:13:49 10 1006 202 3 O 0 61.7 410
10:16:48 10 1006 203 4 NO 0 60.8 419
10:19:49 10 1006 203 4 NO 0 63.1 413
10:22:48 10 1006 188 6 NO 0 61.3 416
10:25:54 10 1006 203 4 NO 0 60.2 407
10:28:46 10 1006 202 3 N 0 59.7 404
10:31:47 10 1006 164 4 S 0 59.4 407
10:34:50 11 1006 203 2 O 0 61 405
10:37:49 11 1006 203 1 NW 0 60.9 408
10:40:48 11 1006 203 2 O 0 59.8 404
10:43:50 11 1006 203 0 SO 0 59.9 407
10:46:47 11 1006 202 6 S 0 60.6 404
10:49:47 11 1006 203 1 SO 0 60.1 413
10:52:47 11 1006 203 3 O 0 59.9 415
10:55:48 11 1006 204 0 NO 0 58.6 416
10:58:46 11 1006 204 4 N 0 59.5 424
11:01:46 11 1006 204 3 O 0 58.4 431
11:04:46 11 1006 205 4 N 0 56.5 431
11:07:48 11 1006 205 3 N 0 55.5 437
11:10:47 11 1006 205 4 NW 0 54.9 432
11:13:48 11 1006 205 6 NW 0 55.4 433
11:16:47 11 1006 205 4 NO 0 56.2 433
11:19:47 11 1006 205 6 SO 0 58.2 442
11:22:50 12 1006 205 2 SO 0 58 466
11:25:48 12 1006 205 3 NO 0 57.6 465
11:28:51 12 1006 205 0 NW 0 55.4 456
11:31:46 12 1006 205 6 N 0 55 451
11:34:49 12 1006 205 2 SO 0 54.8 463
11:37:51 12 1006 205 0 SO 0 56.1 469
11:40:47 12 1006 206 2 O 0 56.5 472
11:43:49 12 1006 206 5 N 0 53.6 486
11:46:49 12 1006 205 4 SO 0 54 478
11:49:47 12 1006 206 2 O 0 55.1 494
11:52:48 12 1006 206 3 SO 0 53.3 490
11:55:51 12 1005 206 10 NW 0 52.2 495
11:58:48 12 1006 206 5 NW 0 50.7 486
12:01:48 12 1006 206 6 W 0 49 471
12:04:51 12 1006 207 6 N 0 47.1 466
12:07:49 12 1006 165 3 NW 0 48.7 469
12:10:50 13 1006 166 10 NO 0 49.3 407
12:13:49 13 1006 207 3 S 0 46.1 404
12:16:32 11 1005 208 7 NO 0 40 404
12:19:47 13 1006 208 4 NO 0 41.1 415
12:22:49 13 1005 209 7 SO 0 45.4 421
12:25:49 14 1006 209 4 N 0 43.2 439
12:28:47 14 1006 209 7 W 0 42.9 430
12:31:47 14 1006 210 4 O 0 39.2 421
12:34:46 14 1006 210 5 N 0 39.1 409
12:37:47 14 1006 210 4 N 0 38.2 406
12:40:48 14 1006 210 9 O 0 38.6 406
12:43:49 14 1006 211 4 NO 0 39.2 407
12:46:46 14 1006 211 7 W 0 40.3 407
12:49:47 14 1005 212 2 N 0 40.2 406
12:52:46 14 1005 212 3 O 0 40.7 404
12:55:47 14 1005 213 8 NW 0 41.3 407
12:58:48 14 1005 213 5 N 0 39.7 407
13:01:47 14 1005 213 3 N 0 39.6 407
13:04:49 15 1006 214 10 N 0 39.1 404
13:07:51 14 1006 215 3 SO 0 38.1 404
13:10:47 14 1005 215 5 SO 0 37.9 403
13:13:49 15 1005 216 8 NO 0 38.1 407
13:16:49 15 1005 216 12 NW 0 38.3 404
13:19:47 15 1005 216 5 N 0 39.6 407
13:22:46 15 1005 217 4 NO 0 40.1 407
13:25:48 15 1005 218 5 W 0 40.8 407
13:28:47 15 1005 218 5 N 0 39.8 407
13:31:50 15 1004 218 9 NW 0 37.9 407
13:34:48 15 1005 218 8 N 0 37.5 404
13:37:48 15 1005 219 15 N 0 39.6 403
13:40:46 15 1005 221 5 NO 0 39.7 406
13:43:49 15 1005 223 11 NW 0 40.5 407
13:46:47 15 1005 224 2 W 0 39.6 407
13:49:50 15 1005 226 5 NO 0 38.5 407
13:52:49 15 1005 227 7 NO 0 38.3 404
13:55:47 15 1005 228 4 N 0 39.2 405
13:58:49 15 1005 229 4 NO 0 39.2 406
14:01:46 15 1004 230 3 S 0 39.4 404
14:04:49 15 1005 230 3 SW 0 37.5 405
14:07:48 16 1004 230 1 N 0 42.2 404
14:10:50 17 1005 230 2 NO 0 39 404
14:13:49 16 1004 231 4 NW 0 38.4 404
14:16:46 16 1004 231 6 N 0 40.1 407
14:19:50 16 1004 233 12 NW 0 38.5 419
14:22:49 16 1004 235 3 NO 0 37.2 413
14:25:48 15 1004 235 1 NW 0 36.9 413
14:28:48 16 1004 239 5 NO 0 37.6 409
14:31:48 16 1004 240 0 O 0 37.9 413
14:34:48 16 1004 241 4 NW 0 38.3 416
14:37:30 15 1004 241 4 O 0 40 413
14:40:48 17 1004 242 6 S 0 40.7 404
14:43:48 18 1004 243 3 O 0 37.4 407
14:46:46 18 1004 243 1 N 0 34.7 407
14:49:49 17 1003 243 9 NO 0 33.5 408
14:52:47 17 1004 243 5 NW 0 33.4 407
14:55:47 17 1004 243 7 NW 0 35 404
14:58:47 16 1004 244 3 N 0 36 407
15:01:47 16 1003 244 7 N 0 37.7 413
15:04:46 16 1003 244 4 O 0 38.4 412
15:07:47 16 1003 244 1 N 0 38.2 416
15:10:49 16 1004 244 9 N 0 37.9 407
15:13:47 16 1003 245 10 N 0 38.5 413
15:16:50 16 1004 245 2 NW 0 38.2 402
15:19:49 16 1004 245 8 NW 0 38.8 410
15:22:49 17 1003 245 5 N 0 40 413
15:25:47 17 1003 245 4 SO 0 37.8 416
15:28:46 17 1003 246 1 W 0 37.2 412
15:31:51 17 1003 245 4 NW 0 37 408
15:34:45 17 1003 246 6 0 36.1 406
15:37:49 17 1003 246 8 SO 0 35.8 405
15:40:50 17 1003 246 6 SO 0 38.5 408
15:43:32 16 1002 246 6 NW 0 40 406
15:46:48 17 1003 246 6 NW 0 36.7 401
15:49:49 17 1003 246 3 NO 0 36.4 406
15:52:48 16 1003 247 4 O 0 35.3 407
15:55:47 16 1002 246 2 NO 0 34.7 403
15:58:50 16 1002 246 8 NW 0 35.6 413
16:01:47 17 1002 247 0 N 0 35.7 409
16:04:47 18 1002 247 4 N 0 34.3 410
16:07:49 18 1002 247 4 NO 0 33.7 404
16:10:48 17 1002 247 3 O 0 33 406
16:13:49 17 1003 247 3 NW 0 33 406
16:16:49 17 1002 247 0 NW 0 33.7 407
16:19:47 17 1002 247 4 O 0 33.9 404
16:22:49 17 1002 247 1 S 0 33.6 406
16:25:48 17 1003 247 5 NW 0 33.8 407
16:28:47 17 1003 247 6 NO 0 34.2 406
16:31:47 16 1002 247 7 NO 0 34.9 410
16:34:46 17 1002 247 5 N 0 35.9 406
16:37:47 17 1002 247 3 N 0 35.7 407
16:40:50 17 1002 247 5 NO 0 35.8 406
16:43:47 17 1002 247 4 N 0 37.2 406
16:46:49 17 1002 247 7 NO 0 35.1 407
16:49:47 17 1002 247 7 NO 0 34.9 407
16:52:49 17 1002 247 7 NW 0 35.8 407
16:55:48 17 1002 247 6 NW 0 35.7 406
16:58:47 17 1002 247 2 NO 0 35.9 407
17:01:47 17 1002 247 11 O 0 35.8 407
17:04:49 17 1002 247 6 NO 0 35.6 406
17:07:48 17 1002 247 8 S 0 35.5 403
17:10:48 17 1002 247 4 NW 0 35.4 406
17:13:46 17 1002 247 8 NO 0 35.1 404
17:16:48 17 1002 247 3 SO 0 34.9 406
17:19:48 17 1002 247 5 NO 0 35.5 407
17:22:46 17 1002 247 4 0 35.5 403
17:25:48 17 1002 247 5 N 0 35.5 407
17:28:49 17 1002 246 5 SO 0 35.7 404
17:31:48 17 1002 247 8 N 0 35.7 404
17:34:47 17 1002 247 1 N 0 36 404
17:37:49 17 1002 247 2 SO 0 36 407
17:40:49 18 1002 247 2 NO 0 36.8 404
17:43:47 18 1002 247 1 N 0 34.5 407
17:46:46 18 1002 247 5 N 0 34.1 404
17:49:50 18 1002 247 1 NW 0 34 404
17:52:46 18 1002 246 4 NO 0 34.4 404
17:55:48 18 1002 247 3 NW 0 34 406
17:58:48 18 1002 247 2 W 0 34.9 407
18:01:49 18 1002 247 7 NO 0 34.6 407
18:04:48 18 1002 247 2 S 0 35.7 403
18:07:48 18 1002 247 2 NO 0 34.6 407
18:10:49 18 1002 247 3 O 0 34.1 406
18:13:48 18 1002 247 1 S 0 34.1 406
18:16:47 17 1002 247 4 N 0 34.5 410
18:19:49 17 1002 246 7 NO 0 34.6 407
18:22:48 16 1002 241 3 O 0 35.4 408
18:25:47 16 1002 242 4 O 0 36.8 403
18:28:48 16 1002 243 3 NW 0 36.3 410
18:31:50 16 1002 242 4 NO 0 36.3 410
18:34:49 16 1002 240 4 NO 0 36.2 415
18:37:47 16 1002 237 2 N 0 37 407
18:40:48 15 1002 237 2 NO 0 36.8 407
18:43:47 15 1002 241 6 N 0 38.4 404
18:46:46 15 1002 239 9 N 0 37.8 404
18:49:46 15 1002 237 1 O 0 39.1 410
18:52:46 15 1002 221 2 0 39.5 410
18:55:46 15 1002 227 3 O 0 38.5 413
18:58:49 15 1002 237 2 NO 0 39.5 415
19:01:48 15 1002 162 1 N 0 40.2 418
19:04:49 14 1002 168 1 O 0 40.9 418
19:07:47 14 1002 169 0 NO 0 41 404
19:10:47 14 1002 165 5 N 0 41.2 410
19:13:46 14 1002 162 2 N 0 41.6 404
19:16:48 14 1002 156 3 NO 0 41.9 407
19:19:47 14 1002 155 7 O 0 41.7 403
19:22:45 14 1002 154 4 N 0 41.7 406
19:25:48 14 1002 152 3 N 0 42.9 404
19:28:48 14 1002 214 0 NO 0 43.5 404
19:31:47 14 1002 207 1 NO 0 43.6 409
19:34:47 14 1002 201 2 N 0 44.2 416
19:37:48 13 1002 197 1 NO 0 44.6 415
19:40:47 13 1002 193 2 NO 0 45.1 409
19:43:48 13 1002 189 2 NO 0 46.3 404
19:46:47 13 1002 185 0 O 0 47.1 407
19:49:49 13 1002 182 1 NW 0 47.5 413
19:52:47 13 1002 177 3 O 0 47.6 418
19:55:46 13 1002 171 0 N 0 47.5 427
19:58:49 12 1002 165 1 O 0 48.4 432
20:01:49 12 1002 159 1 NO 0 48.5 439
20:04:48 12 1002 151 1 NO 0 49 442
20:07:49 12 1002 142 0 NO 0 49.9 448
20:10:48 12 1002 133 2 NO 0 50.3 453
20:13:49 12 1002 121 0 O 0 50.7 465
20:16:46 11 1002 108 0 O 0 51 462
20:19:46 11 1002 93 0 NO 0 51.7 468
20:22:46 11 1002 78 0 O 0 52.2 468
20:25:49 11 1002 65 0 N 0 52.8 483
20:28:47 11 1001 52 1 NO 0 53.4 487
20:31:49 11 1002 40 0 NO 0 54.3 492
20:34:48 10 1002 30 0 O 0 55.2 492
20:37:47 10 1002 21 0 O 0 55.9 504
20:40:49 10 1001 14 0 O 0 56.4 501
20:43:45 10 1002 9 0 O 0 56.6 504
20:46:45 9 1002 6 0 O 0 56.9 509
20:49:47 9 1002 4 0 O 0 57.6 519
20:52:50 9 1002 0 0 NO 0 58.1 519
20:55:47 9 1002 0 0 NO 0 58.8 517
20:58:49 9 1002 0 0 NO 0 58.9 524
21:01:47 9 1002 0 0 SO 0 59.2 527
21:04:45 8 1002 0 0 SO 0 59.4 524
21:07:47 8 1002 0 0 SO 0 60.1 541
21:10:49 8 1002 0 0 SO 0 60.6 549
21:13:49 8 1002 0 0 SO 0 60.9 563
21:16:46 8 1002 0 0 SO 0 61.1 558
21:19:46 8 1002 0 0 SO 0 61.6 562
21:22:46 8 1002 0 0 SO 0 61.9 557
21:25:48 8 1002 0 0 SO 0 62 570
21:28:49 8 1002 0 0 SO 0 62.4 577
21:31:48 8 1002 0 0 SO 0 62.6 569
21:34:48 7 1002 0 0 SO 0 62.8 577
21:37:48 7 1002 0 0 SO 0 62.8 586
21:40:46 7 1002 0 0 SO 0 62.9 595
21:43:47 7 1002 0 0 SO 0 63.3 592
21:46:48 7 1002 0 0 SO 0 63.8 597
21:49:47 7 1002 0 0 SO 0 64.8 600
21:52:47 7 1002 0 0 SO 0 65.6 603
21:55:46 6 1002 0 0 SO 0 65.7 606
21:58:49 6 1002 0 0 SO 0 65.9 609
22:02:08 6 1002 0 0 SO 0 66.3 622
22:04:49 6 1002 0 0 SO 0 66.7 615
22:07:50 6 1002 0 0 SO 0 67.3 619
22:10:49 6 1002 0 0 SO 0 67.7 624
22:13:48 6 1002 0 0 SO 0 68.1 629
22:16:47 6 1002 0 0 SO 0 69.1 636
22:19:47 6 1002 0 0 SO 0 69.2 635
22:22:49 6 1002 0 0 SO 0 69.5 639
22:25:47 6 1002 0 0 SO 0 69.6 635
22:28:53 6 1002 0 0 SO 0 69.5 639
22:31:49 6 1002 0 0 SO 0 69.8 637
22:34:46 6 1002 0 0 SO 0 70.4 647
22:37:47 5 1002 0 0 SO 0 70.5 645
22:40:48 5 1002 0 0 SO 0 70.5 645
22:43:47 5 1002 0 0 SO 0 71.5 646
22:46:46 6 1002 0 0 SO 0 72.4 650
22:49:48 6 1002 0 0 SO 0 73.7 651
22:52:50 6 1001 0 0 NO 0 74.6 657
22:55:46 6 1001 0 0 NO 0 74.7 662
22:58:49 6 1002 0 0 NO 0 74.5 660
23:01:47 6 1002 0 0 SO 0 73.4 659
23:04:48 6 1002 0 0 SO 0 73.3 668
23:07:48 5 1002 0 0 SO 0 73.7 674
23:10:47 5 1002 0 0 SO 0 73.8 678
23:13:48 5 1002 0 0 SO 0 73.6 674
23:16:47 5 1002 0 0 SO 0 74 678
23:19:46 5 1002 0 0 N 0 76 680
23:22:47 5 1002 0 0 N 0 76.7 690
23:25:48 5 1002 0 0 N 0 75.5 694
23:28:44 5 1001 0 0 N 0 75.4 703
23:31:45 5 1002 0 0 N 0 75.3 711
23:34:47 5 1002 0 0 N 0 76.8 721
23:37:45 5 1002 0 0 N 0 77.4 720
23:40:47 5 1002 0 0 N 0 77.1 733
23:43:44 4 1002 0 0 N 0 76.3 738
23:46:45 4 1002 0 0 SO 0 76.7 744
23:49:48 4 1002 0 0 SO 0 76.9 747
23:52:48 4 1001 0 0 SO 0 77.8 746
23:55:46 4 1002 0 0 SO 0 77.7 735
23:58:46 4 1001 0 0 SO 0 78.2 736

Letzte Änderung : 04-Jan-2022
Copyright Jens Köhler, Wolfsburg, Obere Dorfstraße 10d